User: anonymous   Login
Location: Sungai Jaoh
(2.9167°N, 113.9167°E)
Time: 21:28:53
(UTC+00:00)
Language:

ADEOS Rocket - Orbit

View from above orbital plane
View from above orbital plane
View from above satellite
View from above satellite

Ground track
Ground track

The orbit data is extracted from the following two-line orbital elements,

1 24279U 96046C   21058.44120472 -.00000010  00000-0  29690-4 0  9991
2 24279  98.7122 213.2629 0300855  82.4454 298.6147 13.47174769205900
Epoch (UTC): 27 February 2021 10:35:20
Eccentricity: 0.0300855
inclination: 98.7122°
perigee height: 858 km
apogee height: 1307 km
right ascension of ascending node: 213.2629°
argument of perigee: 82.4454°
revolutions per day: 13.47174769
mean anomaly at epoch: 298.6147°
orbit number at epoch: 20590

The dashed part of the orbit path shows where the satellite is in the earth's shadow,  

DLR